Location: Copetón
(10.0045°N, 67.8273°W)
Time: 16:57:30
(UTC+00:00)

STARLINK-31535 - Pass Details

Date: 18 April 2024
Orbit: 442 x 445 km, 43.0° (Epoch: 19 May)

Event Time Altitude Azimuth Distance (km) Brightness Sun altitude
Rises 22:42:47 0° 328° (NNW) 2,412 7.6 -1.0°
Reaches altitude 10° 22:45:05 10° 340° (NNW) 1,544 6.4 -1.6°
Maximum altitude 22:48:12 29° 43° (NE) 822 4.3 -2.3°
Drops below altitude 10° 22:51:18 10° 105° (ESE) 1,543 5.2 -3.1°
Enters shadow 22:52:43 - 113° (ESE) 2,070 5.9 -3.4°
